Flag for Germany Weather past 2 weeks in Ettlingen, Baden-Württemberg, Germany

Now
75 °F

Passing clouds.


Feels Like: 78 °F
Forecast: 60 / 85 °F
Wind: 5 mph from North

Location: Karlsruhe - Baden Wurttemberg

Current Time: Aug 1, 2014 at 12:36:03 PM

Latest Report: Aug 1, 2014 at 12:20 PM


Visibility: N/A

Pressure: 29.86 "Hg

Humidity: 57%

Dew point: 59 °F

Location of EttlingenLocation

Historic Weather in Ettlingen — Graph

°F

Ettlingen temperature yesterday

Maximum temperature yesterday: 77 °F (at 2:50 PM)
Minimum temperature yesterday: 57 °F (at 5:50 AM)
Average temperature yesterday: 69 °F

Past Weeks' High & Low Weather Summary

 TemperatureHumidityPressure
High93 °F (Jul 19, 5:20 PM)94% (Jul 21, 4:50 AM)30.15 "Hg (Jul 21, 4:50 AM)
Low57 °F (Jul 31, 5:50 AM)24% (Jul 18, 4:20 PM)29.77 "Hg (Jul 28, 5:20 PM)
Average71 °F69%29.91 "Hg
* Reported Jul 17 11:20 AM — Aug 1 11:20 AM, Ettlingen, Weather by CustomWeather, © 2014

Note: Actual official high and low records may vary slightly from our data, if they occured in-between our weather recording intervals... More about our weather records

Advertising

Ettlingen weather history for previous 24 hours

 ConditionsComfort  
Time TempWeatherWind HumidityBarometerVisibility
11:20 AM
Aug 1
73 °FSunny.2 mph65%29.86 "Hg10 mi
10:50 AM70 °FSunny.3 mph69%29.89 "Hg10 mi
10:20 AM70 °FSunny.1 mph73%29.89 "Hg10 mi
9:50 AM68 °FSunny.2 mph73%29.89 "Hg10 mi
9:20 AM66 °FSunny.3 mph78%29.89 "Hg10 mi
8:50 AM64 °FSunny.3 mph83%29.89 "Hg10 mi
8:20 AM63 °FSunny.3 mph88%29.89 "Hg10 mi
7:50 AM63 °FSunny.2 mph83%29.89 "Hg10 mi
7:20 AM61 °FSunny.1 mph88%29.89 "Hg10 mi
6:50 AM61 °FClear.1 mph88%29.89 "Hg10 mi
6:20 AM59 °FFog.2 mph88%29.89 "Hg5 mi
5:50 AM59 °FFog.2 mph88%29.89 "HgN/A
5:20 AM59 °FClear.1 mph88%29.89 "Hg10 mi
4:50 AM61 °FClear.3 mph88%29.89 "Hg10 mi
2:50 AM63 °FClear.1 mph83%29.92 "Hg10 mi
2:20 AM63 °FClear.5 mph83%29.92 "Hg10 mi
11:20 PM
Jul 31
66 °FClear.3 mph78%29.92 "Hg10 mi
10:50 PM66 °FClear.3 mph78%29.92 "Hg10 mi
10:20 PM68 °FClear.2 mph73%29.92 "Hg10 mi
9:50 PM68 °FSunny.2 mph78%29.92 "Hg10 mi
9:20 PM68 °FSunny.2 mph73%29.92 "Hg10 mi
8:50 PM72 °FSunny.3 mph61%29.92 "Hg10 mi
8:20 PM73 °FSunny.5 mph53%29.92 "Hg10 mi
7:50 PM75 °FSunny.5 mph50%29.92 "Hg10 mi
7:20 PM77 °FSunny.6 mph44%29.92 "Hg10 mi
6:50 PM77 °FSunny.6 mph42%29.92 "Hg10 mi
6:20 PM77 °FPassing clouds.6 mph44%29.92 "HgN/A
5:50 PM77 °FPassing clouds.6 mph44%29.95 "HgN/A
5:20 PM77 °FSunny.3 mph44%29.95 "Hg10 mi
4:50 PM77 °FPassing clouds.5 mph47%29.95 "HgN/A
4:20 PM77 °FPassing clouds.5 mph44%29.95 "HgN/A
3:50 PM77 °FPassing clouds.5 mph42%29.95 "HgN/A
3:20 PM77 °FPassing clouds.5 mph42%29.98 "HgN/A
2:50 PM77 °FPassing clouds.5 mph44%29.98 "HgN/A
2:20 PM75 °FScattered clouds.6 mph50%29.98 "HgN/A
1:50 PM75 °FScattered clouds.8 mph47%29.98 "HgN/A
1:20 PM75 °FScattered clouds.7 mph50%29.98 "HgN/A
12:50 PM73 °FScattered clouds.3 mph57%30.01 "Hg6 mi
12:20 PM72 °FScattered clouds.6 mph69%30.01 "HgN/A
Weather by CustomWeather, © 2014

See weather overviewHow to use our weather pages